Flag for Paraguay Weather past 2 weeks in Asuncion, Paraguay

Now
66 °F

Passing clouds.


Feels Like: 66 °F
Forecast: 65 / 76 °F
Wind: 9 mph from Northeast

Location: Asuncion / Aeropuerto

Current Time: Jul 29, 2014 at 2:50:09 AM

Latest Report: Jul 29, 2014 at 2:00 AM


Visibility: N/A

Pressure: 30.09 "Hg

Humidity: 88%

Dew point: 63 °F

Location of AsuncionLocation

Historic Weather in Asuncion — Graph

°F

Asuncion temperature yesterday

Maximum temperature yesterday: 72 °F (at 3:00 PM)
Minimum temperature yesterday: 59 °F (at 12:00 AM)
Average temperature yesterday: 66 °F

Past Weeks' High & Low Weather Summary

 TemperatureHumidityPressure
High84 °F (Jul 16, 3:00 PM)100% (Jul 14, 3:00 AM)30.36 "Hg (Jul 14, 3:00 AM)
Low39 °F (Jul 27, 2:00 AM)33% (Jul 18, 3:00 PM)29.68 "Hg (Jul 23, 12:00 PM)
Average64 °F74%30.06 "Hg
* Reported Jul 14 1:00 AM — Jul 29 1:00 AM, Asuncion, Weather by CustomWeather, © 2014

Note: Actual official high and low records may vary slightly from our data, if they occured in-between our weather recording intervals... More about our weather records

Advertising

Asuncion weather history for previous 24 hours

 ConditionsComfort  
Time TempWeatherWind HumidityBarometerVisibility
1:00 AM
Jul 29
66 °FPassing clouds.8 mph88%30.09 "HgN/A
12:00 AM66 °FPassing clouds.10 mph88%30.09 "HgN/A
11:00 PM
Jul 28
68 °FMild.10 mph83%30.12 "HgN/A
10:00 PM68 °FPassing clouds.10 mph83%30.12 "HgN/A
9:00 PM68 °FClear.8 mph83%30.12 "Hg10 mi
8:00 PM70 °FPassing clouds.9 mph83%30.12 "HgN/A
7:00 PM70 °FPassing clouds.No wind88%30.12 "Hg4 mi
6:00 PM68 °FPassing clouds.No wind88%30.12 "HgN/A
5:00 PM72 °FPassing clouds.3 mph83%30.09 "HgN/A
4:00 PM72 °FBroken clouds.6 mph78%30.09 "HgN/A
3:00 PM72 °FPartly sunny.6 mph78%30.09 "HgN/A
2:00 PM68 °FOvercast.5 mph88%30.12 "HgN/A
1:00 PM70 °FOvercast.7 mph83%30.12 "HgN/A
12:00 PM70 °FMostly cloudy.8 mph83%30.18 "HgN/A
11:00 AM68 °FPartly sunny.8 mph83%30.18 "HgN/A
10:00 AM70 °FPartly sunny.12 mph78%30.21 "HgN/A
9:30 AM68 °FPartly sunny.12 mph83%30.18 "HgN/A
9:00 AM68 °FBroken clouds.8 mph83%30.18 "HgN/A
8:30 AM66 °FSunny.8 mph83%30.18 "Hg10 mi
8:00 AM64 °FSunny.6 mph88%30.18 "Hg10 mi
7:30 AM63 °FSunny.5 mph94%30.18 "Hg10 mi
7:00 AM61 °FSunny.5 mph94%30.15 "Hg10 mi
6:00 AM61 °FSunny.3 mph88%30.15 "Hg10 mi
5:00 AM61 °FClear.3 mph88%30.15 "Hg10 mi
4:00 AM63 °FPassing clouds.2 mph83%30.15 "HgN/A
3:00 AM61 °FPassing clouds.7 mph83%30.15 "HgN/A
2:00 AM61 °FPassing clouds.6 mph77%30.18 "HgN/A
Weather by CustomWeather, © 2014

See weather overviewHow to use our weather pages